Find Starlink 32924

NORAD ID: 63092 Int'l Des: 2025-037 Owner: SPXS Country: US Constellation: starlink operational
LEOCIRCULAR

現在のビュー

3D地球を読み込み中...

About Starlink 32924

Starlink 32924 (NORAD 63092) is a starlink constellation satellite (v2 mini) launched Feb 23, 2025 by SPXS of US. It operates in LEO, CIRCULAR orbit with a mass of 730.00 kg.

Starlink 32924について

説明を読み込み中...

次回通過

Passes for default location (London). Set your location on the main map for personalized predictions.

高度履歴

Loading altitude history...

軌道要素

1 63092U 25037R 26176.16481786 .00001617 00000-0 14320-3 0 9998
2 63092 70.0012 83.3586 0002403 259.2505 100.8383 14.98345754 74703
Epoch: Jun 25, 2026 • Age: 10 hours

現在のステータス

高度 574.3 km
速度 7.57 km/s
衛星直下点 10.64°N, 31.75°W
打ち上げ日 Feb 23, 2025
運用期間 1.3 years
タイプ internet

技術仕様

分類 Payload
質量 730.00 kg
乾燥質量 700.00 kg
総質量 730.00 kg
長さ 0.30 m
直径 4.10 m
スパン 29.00 m
形状 Box + pan
製造者 SPXS
バスタイプ Starlink V2M
フェーズステータス In Orbit
所有者/国 SPXS/US

Most Searched